Volver al catálogo

SL-14 R/B

ActivoPO
NORAD 18821·ROCKET BODY·🇷🇺 Russia

Lanzado Jan 30, 1988 desde Plesetsk Cosmodrome

Loading…

Próximos Pases (próximas 24 horas)

TLE

ActualizadoSource: Space-Track

Época: Sep 14, 2026, 09:39 UTC

1 18821U 88005B   26257.40247842  .00000013  00000-0 -19164-5 0  9995
2 18821  82.5384 254.5096 0013912 197.9248 162.1424 13.85227721952384

Sigue SL-14 R/B en tiempo real con AllMySat

Download on the App Store